Theta_e
325 324 326 326 324 325 329 333 339 341 343 342 343 342 343 338 344 344 339 342 339 337 334 335 330 327 326 326 328 328 326 326 326 326 326 325 323 324 321 324 326 328 326 326
325 326 327 325 325 331 334 338 342 341 339 342 343 343 341 336 339 340 339 342 339 337 334 334 330 328 326 327 327 327 327 325 325 324 325 322 325 326 328 327 327 327 327 326
326 326 326 326 325 326 332 336 340 340 341 339 341 343 339 339 340 340 340 340 337 336 332 333 332 329 327 327 327 327 327 325 324 322 323 323 327 325 325 326 326 328 327 326
326 326 326 325 327 325 326 330 336 340 335 343 338 342 343 341 341 341 339 337 338 334 334 337 333 330 328 328 327 327 327 327 327 324 320 328 327 327 328 329 327 327 327 328
327 326 326 328 328 326 325 334 335 336 339 337 341 342 341 341 340 341 338 336 335 334 334 338 334 332 331 329 328 327 327 327 326 324 326 330 329 330 330 329 328 328 327 327
325 325 327 327 326 326 333 333 330 331 332 339 339 341 339 341 340 343 340 337 335 333 339 336 334 335 332 330 329 329 328 330 329 325 327 331 334 332 330 329 328 327 327 327
324 326 325 327 330 326 328 328 331 332 339 341 337 338 336 335 340 340 337 337 337 334 337 337 335 335 334 332 331 331 333 334 332 329 328 330 332 333 331 330 329 328 328 326
326 327 327 330 332 333 333 329 330 335 338 341 337 342 340 338 338 340 340 339 337 334 332 337 336 335 335 334 333 334 334 335 333 334 333 331 332 333 331 330 329 330 327 326
327 328 326 333 332 331 333 333 329 335 333 337 339 340 337 338 339 339 338 337 338 335 333 332 338 337 335 335 335 335 336 336 336 337 337 336 333 335 333 331 331 332 330 330
326 327 328 331 331 330 332 329 330 329 339 345 342 343 340 337 339 338 339 338 336 336 332 332 338 339 337 337 337 336 337 337 337 338 338 336 334 336 336 334 333 332 332 330
324 324 324 330 329 331 329 331 333 329 332 342 344 341 335 335 334 337 335 332 333 332 329 331 336 339 339 338 339 338 337 337 337 337 339 338 334 337 337 336 333 332 331 332
325 324 328 330 331 331 333 335 329 329 336 335 338 339 333 336 338 338 336 332 331 331 328 330 334 336 338 339 338 339 339 337 336 338 339 339 331 335 335 336 334 333 332 332
328 330 337 332 330 330 334 334 330 327 328 338 338 339 337 336 336 334 333 333 330 329 329 331 332 334 335 337 338 337 337 333 335 337 338 338 333 328 329 329 333 333 333 332
333 333 332 333 333 332 335 333 331 328 330 336 338 339 337 337 337 336 333 330 330 330 330 329 329 329 330 331 336 337 336 329 329 333 336 337 336 332 331 331 331 333 331 330
332 337 335 334 335 335 333 333 333 335 334 342 340 340 337 335 337 336 335 333 334 334 334 332 331 330 331 334 335 335 329 328 329 326 335 335 334 335 332 333 330 331 330 329
330 332 333 334 337 333 337 337 335 333 336 339 339 342 337 335 336 335 334 335 334 334 333 332 332 333 331 335 333 329 327 328 330 335 336 335 332 334 334 332 330 329 329 329
335 335 333 335 337 335 336 338 336 341 343 339 344 339 336 337 335 336 336 334 332 332 332 334 334 334 335 336 331 330 332 333 333 332 328 328 330 332 333 332 330 329 329 326
336 334 333 333 333 337 332 335 336 346 345 340 339 338 336 336 334 333 334 334 332 333 334 334 335 334 335 334 332 330 329 332 331 329 329 328 326 323 330 329 329 326 324 323
329 332 336 336 333 333 338 339 339 346 347 342 338 337 337 334 331 332 332 332 332 331 334 335 337 334 332 332 330 328 328 329 330 330 328 325 326 322 327 326 324 324 324 323
331 332 334 332 333 335 334 338 337 337 339 336 336 335 335 332 333 331 329 329 331 333 336 337 335 334 330 326 329 329 329 329 329 325 324 325 322 320 319 321 321 322 322 321
333 335 335 331 333 331 337 337 337 339 338 339 334 332 332 332 330 328 330 333 336 336 337 337 334 333 333 331 328 326 326 325 325 324 324 321 320 318 315 317 319 320 319 319
331 336 336 335 339 342 339 338 340 336 336 336 334 332 334 331 330 332 334 335 337 337 337 336 334 334 333 330 331 330 328 328 325 322 321 320 319 319 319 318 318 319 319 318
338 332 335 338 338 332 334 332 335 335 335 334 334 333 331 331 333 334 334 335 336 337 337 336 334 333 332 332 331 330 330 327 323 320 319 316 317 318 318 317 318 317 318 317
334 332 335 339 337 336 335 330 334 333 332 330 332 331 330 333 333 335 333 332 332 335 336 335 333 333 333 333 332 329 327 324 321 320 317 316 318 318 317 317 317 317 318 318
334 336 335 335 334 333 337 331 337 334 333 333 330 331 332 332 332 333 333 331 332 335 335 332 333 332 331 330 329 328 326 323 320 318 317 318 317 315 317 316 316 317 317 317
333 334 335 337 333 331 337 337 336 335 335 333 334 333 333 332 332 332 332 332 334 334 334 333 333 332 332 330 329 326 324 321 320 319 317 314 315 316 316 316 317 317 317 316
Wind_Speed
3 6 5 8 6 7 3 4 6 2 1 6 5 2 7 11 9 9 8 8 8 9 12 20 3 17 23 25 25 23 22 18 16 13 13 12 11 10 11 13 12 9 11 10
6 2 4 8 5 4 3 9 3 2 1 4 5 4 5 7 4 6 8 7 8 8 10 10 7 11 20 26 26 23 20 19 17 14 15 9 8 8 11 14 14 13 13 10
3 7 5 4 7 6 1 5 7 6 4 5 5 5 6 3 3 7 8 7 7 7 6 4 5 10 17 23 25 24 22 19 17 14 14 13 9 10 11 11 10 14 13 11
4 4 3 7 3 4 2 5 7 14 4 4 3 2 4 4 7 6 10 5 6 7 5 4 5 14 19 24 25 24 22 20 18 16 16 14 11 9 7 8 10 13 13 12
6 6 8 6 6 2 5 8 7 5 5 5 1 4 7 2 7 10 8 4 4 8 4 5 8 17 18 25 27 24 22 20 18 18 17 15 14 10 8 9 8 12 12 13
6 3 3 5 7 2 10 7 6 4 3 4 4 3 6 3 6 6 6 7 6 9 2 3 11 12 18 24 26 23 22 21 19 19 20 18 13 11 9 12 12 12 12 9
7 4 5 2 6 8 10 5 3 3 5 3 4 2 7 6 9 7 8 9 7 6 3 4 8 13 18 24 26 23 22 21 20 21 23 21 19 15 14 14 11 10 9 7
1 7 1 5 2 2 2 2 5 4 4 4 3 3 6 5 7 7 6 8 10 9 7 8 14 17 21 25 27 26 25 24 23 23 23 24 22 20 17 16 14 12 10 8
4 5 4 3 1 3 1 3 4 6 3 3 3 6 10 5 8 8 10 8 13 8 9 11 17 20 21 22 27 30 28 26 25 25 23 25 24 21 19 16 14 15 12 9
5 2 3 4 1 4 2 4 2 3 4 2 4 4 6 6 9 9 9 10 12 5 9 11 16 19 23 29 31 30 31 31 30 28 25 23 24 22 20 18 16 13 13 12
5 4 5 3 3 2 3 3 6 5 3 4 2 6 6 7 7 9 9 9 8 7 9 8 13 17 23 20 33 35 33 33 31 28 25 22 22 21 20 18 18 17 14 14
4 5 1 1 7 2 3 5 5 4 2 2 4 5 4 5 3 5 10 10 7 8 11 5 6 11 15 18 26 35 38 27 26 22 22 23 18 18 18 19 19 15 16 14
5 3 3 8 6 5 3 1 4 5 4 3 5 5 5 5 8 7 8 9 4 7 5 0 5 13 14 19 24 7 17 35 27 19 20 24 24 19 15 15 15 12 14 14
8 3 6 6 6 3 3 6 4 4 4 5 4 3 4 5 5 9 11 7 4 6 7 6 7 10 16 7 9 19 4 4 19 16 30 19 29 25 23 17 13 16 16 16
5 3 1 2 1 2 3 1 5 4 4 4 4 2 4 4 4 5 6 7 7 6 7 7 6 7 12 13 12 11 8 7 13 12 17 21 23 25 23 19 16 18 13 14
4 3 3 2 3 4 3 3 1 2 3 6 7 2 2 4 3 2 5 4 5 5 7 7 5 7 11 13 16 15 5 4 7 4 13 17 20 16 18 18 18 16 14 12
3 3 3 2 3 4 3 5 2 2 2 7 5 4 1 1 0 2 2 5 6 7 6 7 4 5 8 9 11 12 3 6 5 6 4 7 6 8 13 15 15 16 12 11
4 3 2 2 4 2 5 3 2 2 4 5 7 5 4 5 5 3 3 3 6 6 6 6 6 7 6 7 10 8 8 7 7 7 2 5 15 11 3 0 4 9 10 10
3 4 2 3 2 5 0 3 5 4 4 4 8 6 6 4 2 3 4 4 4 6 7 6 7 5 6 7 8 6 5 5 5 6 4 8 8 8 5 1 4 6 7 9
5 6 4 2 3 5 5 2 2 3 3 7 6 8 5 4 2 4 6 6 5 7 5 6 5 2 6 8 3 5 5 5 2 2 7 4 3 3 3 3 4 4 7 10
2 2 5 3 3 6 6 7 5 4 7 7 6 7 7 4 4 3 2 4 5 6 4 3 3 2 3 3 4 3 6 2 2 5 4 4 2 3 7 6 6 7 9 10
7 6 3 3 2 7 4 4 7 6 3 7 6 5 5 5 4 4 4 4 4 2 1 0 2 3 3 3 4 4 6 3 4 5 6 7 8 9 9 9 10 12 11 12
2 5 4 7 6 4 6 5 5 5 5 6 6 4 6 6 4 6 4 4 2 4 2 2 4 6 5 4 3 5 5 4 5 6 7 9 10 9 10 11 13 14 15 16
2 2 3 2 4 4 5 4 3 6 6 5 6 6 7 7 7 5 5 3 3 5 8 6 5 7 6 5 6 7 5 7 8 9 11 11 11 9 10 12 14 15 18 20
3 2 2 3 6 5 2 7 8 7 5 6 6 6 8 8 7 6 4 3 4 5 6 7 8 8 9 7 8 7 7 8 10 11 11 12 12 14 13 14 14 16 20 19
5 6 5 5 7 5 6 6 6 7 8 9 8 7 6 8 8 6 5 6 7 6 3 4 6 7 9 9 9 8 8 10 11 12 12 12 11 11 12 14 19 20 21 21
Wind_Direction
342 42 352 299 248 202 235 124 110 285 349 56 358 90 322 328 348 343 341 328 329 306 316 4 22 177 179 183 180 175 170 175 181 190 199 213 233 235 234 236 248 249 225 225
6 322 260 277 28 83 116 112 115 6 65 86 340 338 278 12 313 288 300 313 314 305 330 28 70 158 178 176 180 179 181 183 184 203 210 209 224 243 248 241 247 241 224 224
160 261 315 35 349 71 265 153 181 151 119 67 134 311 349 342 330 296 298 266 283 297 311 9 111 173 175 174 182 187 192 191 194 203 210 214 234 248 248 240 247 215 221 220
236 287 326 342 282 148 306 202 149 138 111 167 174 247 296 281 313 289 262 274 355 338 318 355 170 191 176 184 188 195 197 200 204 205 208 218 232 234 240 228 225 209 222 232
262 306 327 332 260 167 209 94 104 168 112 105 347 75 272 23 277 278 281 327 358 333 272 296 228 202 191 189 195 201 204 207 212 210 208 222 231 250 252 233 208 208 226 237
232 252 230 233 286 249 143 89 76 53 81 59 303 116 284 280 246 287 306 303 356 345 13 321 247 186 198 198 203 205 210 217 219 213 216 223 231 227 229 203 210 223 225 255
326 295 289 266 355 76 39 76 11 1 29 218 279 80 241 250 244 242 278 310 324 316 288 228 244 213 194 201 208 212 218 226 220 218 223 225 228 226 224 217 228 234 229 244
217 335 6 323 182 227 74 173 148 212 164 209 331 237 251 269 293 284 292 288 289 275 269 225 238 243 196 207 210 215 221 230 220 220 223 227 229 231 233 226 216 225 229 230
172 271 306 226 185 143 260 43 162 107 39 84 261 284 312 221 292 286 283 280 270 252 240 233 232 236 227 211 225 216 221 226 222 225 228 227 229 230 234 231 232 238 233 240
209 292 245 289 78 30 121 140 61 25 139 156 291 267 240 299 277 286 276 273 275 279 271 245 224 228 230 222 223 224 222 222 219 220 226 232 234 228 232 235 238 241 233 236
138 116 290 8 3 241 352 25 48 109 112 145 174 266 217 240 263 281 286 282 283 289 296 256 230 232 234 228 230 234 232 228 223 223 225 234 245 241 240 235 239 234 239 241
170 148 173 248 309 252 156 169 145 113 211 122 146 274 263 242 230 279 281 288 300 299 293 289 333 301 263 239 239 241 238 222 261 235 231 233 250 243 243 235 238 233 237 249
184 31 37 351 347 354 22 338 102 108 97 185 137 261 331 328 320 312 287 308 293 302 339 238 283 272 280 272 257 321 46 10 1 323 280 270 259 239 233 238 238 234 241 245
86 98 153 170 212 209 1 326 161 127 117 174 213 263 334 2 354 336 356 7 21 15 2 344 334 304 301 328 120 127 148 136 259 222 262 261 266 253 240 242 226 231 226 229
94 136 195 167 279 104 128 335 338 131 168 131 189 103 333 8 42 328 322 4 21 3 353 332 326 334 356 127 114 142 142 138 192 210 242 245 261 269 259 248 229 239 248 244
6 174 180 182 357 156 94 313 48 47 107 80 112 92 347 8 358 356 13 6 359 329 331 325 22 26 89 147 146 157 155 250 236 293 250 267 281 282 269 262 257 264 249 226
81 111 76 272 332 86 332 248 256 272 84 136 140 193 129 21 191 14 345 354 332 329 318 328 45 65 84 146 162 169 213 165 182 244 243 267 309 286 265 263 262 261 221 207
122 99 83 217 33 342 256 279 279 130 85 122 111 155 208 204 235 280 292 301 330 322 317 325 44 54 62 115 144 140 151 173 198 208 263 54 30 24 18 279 211 189 198 206
111 121 91 124 168 283 142 206 186 155 216 199 150 172 190 189 66 326 351 342 306 295 309 8 54 57 118 131 127 143 182 202 211 236 319 354 12 24 52 141 195 211 231 233
66 77 108 94 158 227 244 180 135 72 274 196 170 187 152 102 72 258 317 313 334 6 11 356 14 64 134 151 161 165 161 178 156 48 355 9 5 76 42 265 247 252 257 261
64 29 174 144 215 285 222 176 144 146 237 169 190 172 157 169 191 222 338 35 43 42 49 29 76 151 209 225 204 204 180 155 339 323 330 320 252 270 318 313 276 264 273 275
180 152 197 108 132 266 132 100 173 210 148 166 191 183 149 135 115 114 95 88 116 117 139 114 335 282 245 260 264 233 229 291 329 329 323 317 305 293 287 286 272 275 280 288
229 181 189 176 215 212 234 231 239 159 156 184 171 157 139 136 144 158 139 129 174 218 210 270 283 282 275 303 302 308 309 313 316 315 313 310 311 290 281 280 276 278 277 276
304 147 143 97 249 256 246 214 230 184 190 178 162 153 150 158 167 171 168 181 206 212 224 239 245 265 278 270 282 288 302 312 310 309 312 315 312 307 299 295 294 288 288 288
208 41 134 273 287 292 245 231 188 195 193 150 141 152 169 153 176 183 173 182 214 198 204 213 235 257 267 256 268 278 272 288 293 296 302 307 309 313 311 314 319 314 311 308
187 183 163 226 228 174 231 212 181 180 190 174 155 147 173 174 168 171 182 185 184 202 209 220 234 245 257 255 264 267 258 276 286 296 309 313 313 320 322 325 327 327 323 320